User: anonymous   Login
Location: Unspecified
(0.0000°N, 0.0000°E)
Time: 08:37:01
(UTC+00:00)
Language:

Orbcomm A7 (FM11) - Orbit

View from above orbital plane
View from above orbital plane
View from above satellite
View from above satellite

Ground track
Ground track

The orbit data is extracted from the following two-line orbital elements,

1 25114U 97084C   18267.90720517 +.00000090 +00000-0 +75070-4 0  9998
2 25114 045.0156 182.5969 0005649 078.1262 282.0220 14.38769812087208
Epoch (UTC): 24 September 2018 21:46:22
Eccentricity: 0.0005649
inclination: 45.0156°
perigee height: 758 km
apogee height: 766 km
right ascension of ascending node: 182.5969°
argument of perigee: 78.1262°
revolutions per day: 14.38769812
mean anomaly at epoch: 282.0220°
orbit number at epoch: 8720

The dashed part of the orbit path shows where the satellite is in the earth's shadow,  

DLR